Regional Weather Roundup
Issued by NWS

Home | Current Version | Previous Version | Graphics & Text | Print | Product List | Glossary On
Versions: 1 2 3 4 5 6 7 8 9 10 11 12 13 14 15 16 17 18 19 20 21 22 23 24 25 26 27 28 29 30 31 32 33 34 35 36 37 38 39 40 41 42 43 44 45 46 47 48 49 50
000
ASUS45 KPSR 160500
RWRAZ

PRELIMINARY ARIZONA REGIONAL HOURLY WEATHER ROUNDUP
NATIONAL WEATHER SERVICE PHOENIX AZ
1000 PM MST MON SEP 15 2014

NOTE: FAIR INDICATES FEW OR NO CLOUDS BELOW 12,000 FEET WITH NO
SIGNIFICANT WEATHER AND/OR OBSTRUCTIONS TO VISIBILITY.

AZZ001>003-036-160600-
NORTHWEST ARIZONA

CITY           SKY/WX    TMP DP  RH WIND       PRES   REMARKS
KINGMAN        CLEAR     74  55  51 E5        30.02R
$$

AZZ004>008-015-016-018-160600-
NORTH CENTRAL ARIZONA

CITY           SKY/WX    TMP DP  RH WIND       PRES   REMARKS
GRAND CANYON   CLEAR     55  44  66 E3        30.31R
PRESCOTT       PTCLDY    66  53  63 CALM      30.17R
FLAGSTAFF      CLEAR     55  47  74 CALM      30.32S
PAYSON         MOCLDY    70  54  56 NE3       30.21R
PAGE           CLEAR     80  39  23 S3        30.08S
$$

AZZ009>014-017-160600-
NORTHEAST ARIZONA

CITY           SKY/WX    TMP DP  RH WIND       PRES   REMARKS
WINSLOW        NOT AVBL
SAINT JOHNS    CLOUDY    70  53  54 NW7       30.25R
WINDOW ROCK    MOCLDY    62  53  72 NE5       30.34S
SHOW LOW       CLOUDY    63  48  59 S6        30.32R
$$

AZZ023-160600-
GREATER PHOENIX AREA

CITY           SKY/WX    TMP DP  RH WIND       PRES   REMARKS
PHOENIX        MOCLDY    95  59  30 W7        29.81S
DEER VALLEY    PTCLDY    92  56  29 VRB5      29.84R
SCOTTSDALE     MOCLDY    94  57  28 CALM      29.85F
MESA-GATEWAY   MOCLDY    93  57  29 E9        29.86S
$$

AZZ027-028-160600-
SOUTHWEST MARICOPA COUNTY AND PINAL COUNTY

CITY           SKY/WX    TMP DP  RH WIND       PRES   REMARKS
CASA GRANDE    CLOUDY    90  66  45 S10       29.88R
$$

AZZ503-504-507>509-160600-
SOUTHEAST ARIZONA

CITY           SKY/WX    TMP DP  RH WIND       PRES   REMARKS
TUCSON         CLOUDY    84  63  49 S12       30.00R
DAVIS-MONTHAN  DRIZZLE   82  63  51 S9        29.99S
NOGALES        CLOUDY    72  65  78 SE5       30.10S
SIERRA VISTA   CLOUDY    73  61  64 E12       30.16R
SAFFORD        CLOUDY    81  57  43 E16       30.06R
$$

AZZ020-021-025-026-031-160600-
SOUTHWEST ARIZONA

CITY           SKY/WX    TMP DP  RH WIND       PRES   REMARKS
YUMA           MOCLDY    92  71  50 S21       29.76R
$$

CAZ031-033-041-043-047-048-061-160600-
SOUTHERN CALIFORNIA

CITY           SKY/WX    TMP DP  RH WIND       PRES   REMARKS
DOWNTOWN L.A.  CLEAR     83  62  49 CALM      29.74S
L.A. AIRPORT   CLEAR     80  61  52 SW6       29.75S
SAN DIEGO      PTCLDY    79  70  74 S3        29.81R
BURBANK        CLEAR     90  52  27 W5        29.78S
ONTARIO        PTCLDY    89  53  29 CALM      29.81R
RIVERSIDE      CLEAR     89  54  30 SE3       29.81R
PALM SPRINGS   CLEAR    101  51  18 N9        29.76R
EL CENTRO NAS  PTCLDY    93  70  46 SE7       29.71R
IMPERIAL       CLEAR     94  72  48 SE15      29.71R HX 102
BLYTHE         CLEAR     98  57  25 NE7       29.74R
$$

NVZ020-UTZ003-160600-
SOUTHERN NEVADA-UTAH

CITY           SKY/WX    TMP DP  RH WIND       PRES   REMARKS
LAS VEGAS      NOT AVBL
SALT LAKE CITY PTCLDY    71  40  32 S8        30.07S
$$

NMZ009-TXZ055-160600-
NEW MEXICO-WEST TEXAS

CITY           SKY/WX    TMP DP  RH WIND       PRES   REMARKS
ALBUQUERQUE    CLOUDY    68  57  68 SE6       30.31R
EL PASO        LGT RAIN  73  65  75 N6        30.20R
$$


........................KEY........................
SKY/WX - SKY CONDITION/WEATHER
TMP    - TEMPERATURE IN FAHRENHEIT
DP     - DEW POINT IN FAHRENHEIT
RH     - RELATIVE HUMIDITY IN PERCENT
WIND   - DIRECTION AND SPEED IN MILES PER HOUR (MPH)
VRB    - VARIABLE WIND DIRECTION
PRES   - MEAN SEA LEVEL PRESSURE IN INCHES OF MERCURY
         F - FALLING PRESSURE   R - RISING PRESSURE
         S - STEADY PRESSURE
VSB    - VISIBILITY IN MILES
HX     - HEAT INDEX IN FAHRENHEIT
WCI    - WIND CHILL INDEX IN FAHRENHEIT
TC     - TEMPERATURE IN CELSIUS WHICH IS ALSO KNOWN AS
         TEMPERATURE IN CENTIGRADE
AFB    - AIR FORCE BASE
         LUKE AFB IS LUKE AIR FORCE BASE
         DAVIS-MONTHAN IS DAVIS-MONTHAN AIR FORCE BASE
NAS    - NAVAL AIR STATION
         EL CENTRO NAS IS EL CENTRO NAVAL AIR STATION
N/A    - NOT AVAILABLE


USA.gov is the U.S. government's official web portal to all federal, state and local government web resources and services.